Find Starlink 31589

NORAD ID: 59654 Int'l Des: 2024-084 Owner: SPXS Country: US Constellation: starlink operational
LEOCIRCULAR

リアルタイム位置

3D地球を読み込み中...

Starlink 31589について

説明を読み込み中...

次回通過

Passes for default location (London). Set your location on the main map for personalized predictions.

高度履歴

Loading altitude history...

軌道要素

1 59654U 24084A 26129.22788722 .00000881 00000-0 41512-4 0 9999
2 59654 43.0011 59.7450 0000823 214.2412 145.8386 15.27583984113652
Epoch: May 9, 2026 • Age: 21 hours

現在のステータス

高度 488.3 km
速度 7.62 km/s
衛星直下点 -24.15°S, 6.84°W
打ち上げ日 May 6, 2024
運用期間 2 years
タイプ internet

技術仕様

分類 Payload
質量 730.00 kg
乾燥質量 700.00 kg
総質量 730.00 kg
長さ 0.30 m
直径 4.10 m
スパン 29.00 m
形状 Box + pan
製造者 SPXS
バスタイプ Starlink V2M
フェーズステータス In Orbit
所有者/国 SPXS/US

Most Searched